www.pogodaiklimat.ru

Погода и климат >> Архив погоды >> Кувейт >> Эль-Кувейт


АРХИВ ПОГОДЫ в Эль-Кувейте

Время (UTC), дата Ветер
(напр.,м/с)
 
Видим.   Явления Облачность Т
(С)
Тd
(С)
f
(%)
Тe
(С)
Тes
(С)
Комфортность P
(гПа)
Po
(гПа)
Тmin
(С)
Tmax
(С)
R
(мм)
R24
(мм)
S
(см)
18 15.03 ЮЗ 2-2
{8}
6000 м мгла ясно +15.9 +7.7 58 +16 +16 прохладно 1016.6 1010.8
21 15.03 Ю 2-3
{4}
7000 м дымка ясно +13.6 +10.3 80 +13 +13 прохладно 1017.1 1011.3 +13.5 +25.3
00 16.03 штиль 0-3
{4}
7000 м мгла ясно +12.1 +9.7 85 +12 +12 прохладно 1016.0 1010.2
03 16.03 Ю 1-1
{3}
6000 м н/о +10.2 +7.7 84 +11 +11 холодно 1016.7 1010.8
06 16.03 штиль 0-2
{4}
6000 м мгла 3/0
[Ci fib]
+19.8 +4.4 36 +20 +32 тепло 1017.4 1011.7 204
18 16.03 ЮВ 3-4
{9}
6000 м дымка 5/0
[Ac trans]
+18.3 +15.8 85 +19 +19 по сезону 1010.3 1004.6
21 16.03 В 4-5
{7}
5000 м дымка 5/3 1200 м
[Sc diur, vesp Ac trans]
+18.5 +17.4 93 +19 +19 тепло 1008.3 1002.6 +9.4 +25.9
00 17.03 ЮВ 6-10
{10}
4000 м дымка 4/3 1200 м
[Sc diur, vesp Ac trans]
+18.7 +17.7 94 +19 +19 тепло 1005.9 1000.3
03 17.03 ЮЗ 3-3
{9}
1600 м дымка 5/5 900 м
[Sc diur, vesp]
+17.5 +17.0 97 +18 +18 тепло 1006.6 1000.9
06 17.03 СЗ 10-13
{17}
7000 м пыльный позёмок ясно +20.4 +4.4 35 +20 +21 тепло 1010.3 1004.7 213
09 17.03 СЗ 11-15
{16}
5000 м пыльный позёмок ясно +22.6 +2.4 26 +22 +22 комфорт 1011.5 1005.9 364
12 17.03 СЗ 11-15
{17}
5000 м пыльный позёмок ясно +24.3 +1.1 22 +23 +23 комфорт 1010.8 1005.2 289
15 17.03 СЗ 9-11
{16}
8000 м пыльный позёмок ясно +21.6 +0.1 24 +21 +21 комфорт 1012.2 1006.6 24
18 17.03 З 3-3
{16}
8000 м дождь ясно +18.4 +3.4 37 +19 +19 по сезону 1014.5 1008.8
21 17.03 З 3-3
{4}
10 км ясно +14.0 +4.8 54 +13 +13 прохладно 1015.3 1009.5 +13.8 +24.8
00 18.03 З 2-3
{4}
10 км ясно +12.9 +4.5 57 +12 +12 прохладно 1014.9 1009.1
03 18.03 ЮЗ 3-4
{4}
10 км ясно +11.8 +4.3 60 +10 +10 холодно 1016.4 1010.6
06 18.03 СЗ 5-7
{8}
7000 м мгла ясно +19.3 +4.1 37 +19 +24 по сезону 1018.5 1012.8 202
09 18.03 С 8-11
{13}
7000 м мгла ясно +22.7 +3.0 27 +22 +26 комфорт 1018.2 1012.6 367
12 18.03 СЗ 8-12
{13}
10 км ясно +23.7 -0.1 21 +23 +24 комфорт 1017.5 1011.9 307
15 18.03 С 6-8
{12}
10 км ясно +21.4 +0.6 25 +21 +21 комфорт 1018.5 1012.8 26
18 18.03 С 6-8
{12}
10 км ясно +19.3 -4.7 19 +19 +19 по сезону 1019.9 1014.2
21 18.03 СЗ 2-2
{7}
10 км ясно +16.0 -0.8 32 +16 +16 по сезону 1020.0 1014.2 +10.0 +25.0
00 19.03 штиль 0-2
{7}
10 км ясно +10.2 -2.4 41 +10 +10 холодно 1019.4 1013.5
03 19.03 ЮЗ 2-3
{3}
10 км ясно +8.1 -1.4 51 +7 +7 очень
холодно
1019.8 1013.9
06 19.03 С 4-6
{6}
10 км 3/0
[Ci fib]
+19.0 -1.3 25 +19 +26 по сезону 1020.5 1014.8 225
09 19.03 С 5-9
{9}
10 км 3/0
[Ci fib]
+22.5 -4.1 17 +21 +30 комфорт 1019.3 1013.7 385
12 19.03 С 7-11
{13}
10 км 3/0
[Ci fib]
+24.3 -0.3 20 +23 +25 комфорт 1017.0 1011.4 311
15 19.03 С 6-7
{11}
10 км 4/0
[Ci fib]
+22.7 -0.1 22 +22 +22 комфорт 1016.6 1011.0 30
18 19.03 СВ 3-4
{11}
10 км 3/0
[Ci fib]
+19.5 +0.8 29 +20 +20 тепло 1017.7 1012.0
21 19.03 штиль 0-2
{5}
10 км ясно +16.0 +2.4 40 +16 +16 по сезону 1017.0 1011.2 +6.5 +24.9
00 20.03 З 2-2
{5}
10 км ясно +12.2 +3.5 55 +11 +11 прохладно 1016.0 1010.2
03 20.03 Ю 2-2
{3}
10 км 4/0
[Ac trans]
+9.1 +3.7 69 +8 +8 очень
холодно
1017.3 1011.4
06 20.03 ЮЗ 1-2
{4}
10 км н/о +19.9 +3.7 34 +21 +21 комфорт 1017.4 1011.7 186
09 20.03 В 2-6
{6}
7000 м мгла 6/0
[Ac trans]
+24.3 +2.4 24 +23 +35 комфорт 1015.3 1009.7 343
12 20.03 В 3-6
{7}
10 км 4/0 2000 м
[Ac lent]
+23.9 +0.7 22 +23 +28 комфорт 1013.5 1007.9 245
15 20.03 ЮВ 2-2
{6}
10 км 6/3 1200 м
[Sc Ac und]
+22.2 +1.4 25 +22 +22 комфорт 1014.0 1008.4 15
18 20.03 Ю 2-2
{6}
10 км 5/0 2000 м
[Ac und]
+17.6 +3.7 40 +18 +18 по сезону 1015.3 1009.6
21 20.03 Ю 2-2
{3}
10 км 5/0 2000 м
[Ac trans]
+14.5 +4.8 52 +15 +15 прохладно 1014.6 1008.8 +8.8 +26.0
00 21.03 штиль 0-1
{4}
10 км 5/0
[Ac trans]
+13.8 +5.3 56 +14 +14 по сезону 1013.7 1007.9
03 21.03 штиль 0-2
{1}
5000 м мгла 5/0
[Ac trans]
+13.9 +6.4 61 +14 +14 прохладно 1015.0 1009.2
06 21.03 СВ 2-6
{6}
10 км 6/0 2000 м
[Ac trans]
+21.4 +7.6 41 +22 +28 комфорт 1015.9 1010.3 158
09 21.03 В 2-6
{7}
10 км 5/0
[Ac trans]
+24.5 +4.8 28 +24 +36 комфорт 1015.4 1009.8 342
12 21.03 В 5-7
{7}
10 км 6/0 2000 м
[Ac trans]
+25.5 +3.9 25 +25 +28 комфорт 1013.5 1007.9 268
15 21.03 В 2-3
{7}
10 км 6/0
[Ac trans Ci fib]
+22.8 +3.2 28 +23 +23 комфорт 1013.9 1008.3 18
18 21.03 В 2-1
{7}
10 км 3/0
[Ac trans]
+19.8 +4.5 36 +21 +21 комфорт 1015.0 1009.3
21 21.03 С 2-3
{4}
10 км 4/0
[Ci fib]
+18.5 +4.5 40 +19 +19 тепло 1014.7 1009.0 +12.1 +26.0
00 22.03 СВ 2-6
{6}
10 км 3/0
[Ci fib]
+19.1 +8.0 49 +20 +20 тепло 1014.3 1008.6
03 22.03 СВ 3-5
{6}
10 км 4/0
[Ac trans]
+17.5 +10.1 62 +17 +17 по сезону 1015.4 1009.7
06 22.03 СВ 3-5
{6}
10 км ясно +23.0 +8.0 38 +24 +33 комфорт 1016.9 1011.3 206
09 22.03 В 2-6
{6}
35 км н/о +26.2 +6.5 28 +26 +26 жарко 1015.7 1010.1 365
12 22.03 В 5-5
{7}
10 км 3/0
[Ci fib]
+26.0 +5.0 26 +25 +29 комфорт 1013.8 1008.3 268
15 22.03 В 3-3
{6}
10 км 3/0
[Ac trans]
+23.5 +3.6 27 +23 +23 комфорт 1013.6 1008.0 21

 

Местоположение метеостанции Эль-Кувейт (Кувейт): широта 29.22 долгота 47.97 высота над уровнем моря 48 м.

В архиве по умолчанию представлена погода в Эль-Кувейте за последнюю неделю. Архивные данные за месяц целиком и за предыдущие месяцы, начиная с января 2011 года, Вы можете получить, выбрав интересующий диапазон дат из раскрывающегося списка и нажав кнопку "Ввод!".


*Определитесь, кто Вы:
робот инопланетянин человек

Внимание! Время в таблицах - всемирное. Для получения местного времени необходимо прибавить поправку, которая равна 3 ч.

Смотрите также архив погоды в соседних городах и на ближайших метеорологических станциях:

Погода на Экспериментальной ферме (Кувейт) (8 км)
Погода в Кувейт Сити (Кувейт) (14 км)
Погода в Аль-Шуаиба (Кувейт) (19 км)
Погода в Сулайбии (Кувейт) (25 км)
Погода в Эль-Джахра (Кувейт) (31 км)
Погода Остров Файлака (Кувейт) (41 км)
Погода в Минагише (Кувейт) (46 км)
Погода в Порту Juluiah (Кувейт) (49 км)
Погода на Метеостанции Jal Aliyah (Кувейт) (58 км)
Погода на Метеостанции Sabriyah (Кувейт) (60 км)

Пояснения к столбцам:

Ветер - указаны скорость ветра в м/с - средняя за 10 мин, порывы в срок и между сроками (в фигурных скобках) и направление, откуда дует ветер: С - северный, СВ - северо-восточный, В - восточный, ЮВ - юго-восточный, Ю - южный, ЮЗ - юго-западный, З - западный, СЗ - северо-западный.
Видимость - горизонтальная дальность видимости в метрах или километрах. При видимости от 1 до 10 км при отсутствии осадков обычно наблюдается дымка, при ухудшении видимости до 1 км и менее - туман. В сухую погоду видимость может ухудшаться дымом, пылью или мглою.
Явления - указаны атмосферные явления, наблюдавшиеся в срок или в последний час перед сроком; фигурными скобками обозначены явления, наблюдавшиеся между сроками (за 1-3 часа до срока); квадратными скобками обозначены град или гололедные отложения с указанием их диаметра в мм.
Облачность - указаны через наклонную черту общая и нижняя облачность в баллах и высота нижней границы облаков в метрах; квадратными скобками обозначены формы облаков: Ci - перистые, Cs - перисто-слоистые, Cc - перисто-кучевые, Ac - высококучевые, As - высокослоистые, Sc - слоисто-кучевые, Ns - слоисто-дождевые, Cu - кучевые, Cb - кучево-дождевые. Подробнее классификацию облаков см. в Атласе облаков (PDF).
T - Температура воздуха - температура, измеренная на высоте 2 м над землей.
Td - Температура точки росы - температура, при понижении до которой содержащийся в воздухе водяной пар достигнет насыщения.
f - Относительная влажность воздуха - влажноcть воздуха, измеренная на высоте 2 м над землей.
Te - Эффективная температура - температура, которую ощущает одетый по сезону человек в тени. Характеристика душности погоды. При расчете учитывается влияние влажности воздуха и скорости ветра на теплоощущения человека.
Tes - Эффективная температура на солнце - температура, которую ощущает человек, с поправкой на солнечный нагрев. Характеристика знойности погоды. Зависит от высоты солнца над горизонтом, облачности и скорости ветра. Ночью, в пасмурную погоду, а также при ветре 12 м/с и более поправка равна нулю.
P - Атмосферное давление - приведенное к уровню моря атмосферное давление.
Po - Атмосферное давление - измеренное на уровне метеостанции атмосферное давление.
Tmin - Минимальная температура - минимум температуры воздуха на высоте 2 м над землей.
Tmax - Максимальная температура - максимум температуры воздуха на высоте 2 м над землей.
R - Количество осадков - Количество выпавших осадков за период времени, мм. При наведении курсора мыши на число - период времени, за который выпало указанное количество осадков.
R24 - Количество осадков - Количество выпавших осадков за 24 часа, мм.
S - Снежный покров - Высота снежного покрова, см. При наведении курсора мыши на число - состояние снежного покрова и степень покрытия местности в баллах.